TimeCST,TemperatureF,Dew PointF,Humidity,Sea Level PressureIn,VisibilityMPH,Wind Direction,Wind SpeedMPH,Gust SpeedMPH,PrecipitationIn,Events,Conditions,WindDirDegrees,DateUTC
12:53 AM,61.0,52.0,72,29.95,10.0,South,15.0,-,N/A,,Overcast,180,2013-02-18 06:53:00
1:53 AM,62.1,53.1,72,29.93,10.0,South,13.8,23.0,N/A,,Overcast,170,2013-02-18 07:53:00
2:53 AM,62.1,54.0,75,29.91,10.0,South,17.3,24.2,N/A,,Overcast,180,2013-02-18 08:53:00
3:53 AM,62.1,54.0,75,29.90,10.0,South,16.1,25.3,N/A,,Overcast,170,2013-02-18 09:53:00
4:53 AM,62.1,55.0,78,29.88,10.0,South,13.8,24.2,N/A,,Overcast,180,2013-02-18 10:53:00
5:53 AM,62.1,55.0,78,29.88,10.0,South,11.5,-,N/A,,Overcast,180,2013-02-18 11:53:00
6:53 AM,62.1,55.9,80,29.88,10.0,South,11.5,-,N/A,,Overcast,180,2013-02-18 12:53:00
7:53 AM,63.0,57.0,81,29.88,10.0,South,16.1,-,N/A,,Overcast,180,2013-02-18 13:53:00
8:53 AM,64.9,57.9,78,29.90,10.0,South,20.7,25.3,N/A,,Overcast,190,2013-02-18 14:53:00
9:53 AM,66.9,59.0,76,29.94,10.0,South,19.6,26.5,N/A,,Overcast,190,2013-02-18 15:53:00
10:53 AM,69.1,59.0,70,29.94,10.0,SSW,17.3,26.5,N/A,,Overcast,210,2013-02-18 16:53:00
11:53 AM,73.0,59.0,61,29.91,10.0,SSW,21.9,29.9,N/A,,Mostly Cloudy,200,2013-02-18 17:53:00
12:53 PM,77.0,57.0,50,29.86,10.0,South,18.4,26.5,N/A,,Scattered Clouds,190,2013-02-18 18:53:00
1:53 PM,78.1,53.1,42,29.84,10.0,SW,10.4,23.0,N/A,,Scattered Clouds,220,2013-02-18 19:53:00
2:53 PM,80.1,51.1,36,29.81,10.0,WSW,13.8,21.9,N/A,,Scattered Clouds,240,2013-02-18 20:53:00
3:53 PM,82.0,48.0,30,29.80,10.0,WSW,11.5,17.3,N/A,,Scattered Clouds,240,2013-02-18 21:53:00
4:53 PM,82.0,33.1,17,29.81,10.0,West,15.0,20.7,N/A,,Scattered Clouds,270,2013-02-18 22:53:00
5:53 PM,78.1,28.0,16,29.83,10.0,NW,6.9,-,N/A,,Scattered Clouds,320,2013-02-18 23:53:00
6:53 PM,71.1,28.0,20,29.88,10.0,NNW,6.9,-,N/A,,Scattered Clouds,330,2013-02-19 00:53:00
7:53 PM,70.0,25.0,18,29.93,10.0,NNW,19.6,32.2,N/A,,Partly Cloudy,330,2013-02-19 01:53:00
8:53 PM,64.9,28.9,26,29.99,10.0,North,21.9,31.1,N/A,,Mostly Cloudy,360,2013-02-19 02:53:00
9:53 PM,62.1,30.9,31,30.03,10.0,North,16.1,-,N/A,,Scattered Clouds,10,2013-02-19 03:53:00
10:53 PM,57.9,30.9,36,30.07,10.0,North,10.4,-,N/A,,Partly Cloudy,350,2013-02-19 04:53:00
11:53 PM,53.1,32.0,45,30.09,10.0,NNE,8.1,-,N/A,,Partly Cloudy,20,2013-02-19 05:53:00